Regional Weather Roundup
Issued by NWS

Home | Current Version | Previous Version | Graphics & Text | Print | Product List | Glossary On
Versions: 1 2 3 4 5 6 7 8 9 10 11 12 13 14 15 16 17 18 19 20 21 22 23 24 25 26 27 28 29 30 31 32 33 34 35 36 37 38 39 40 41 42 43 44 45 46 47 48 49 50
000
ASUS43 KBIS 301459
RWRND

NORTH DAKOTA REGIONAL WEATHER ROUNDUP
NATIONAL WEATHER SERVICE BISMARCK ND
1000 AM CDT SAT AUG 30 2014

NOTE: "FAIR" INDICATES FEW OR NO CLOUDS BELOW 12,000 FEET WITH NO
SIGNIFICANT WEATHER AND/OR OBSTRUCTIONS TO VISIBILITY.


NDZ001>003-009>011-017-301600-
NORTHWEST NORTH DAKOTA

CITY           SKY/WX    TMP DP  RH WIND       PRES   REMARKS
WILLISTON      SUNNY     63  54  72 S8G18     29.84F
MINOT          SUNNY     59  53  80 SE9       29.91F
$$

NDZ018>021-031>035-040>046-301600-
SOUTHWEST NORTH DAKOTA

CITY           SKY/WX    TMP DP  RH WIND       PRES   REMARKS
BISMARCK       FOG       53  53 100 CALM      29.96F VSB 1/4
GARRISON         N/A     59  55  87 S10       29.92F
HETTINGER ARPT MOSUNNY   57  53  86 SE15      29.92F
$$

NDZ004>008-012>016-024-026-027-054-301600-
NORTHEAST NORTH DAKOTA

CITY           SKY/WX    TMP DP  RH WIND       PRES   REMARKS
GRAND FORKS    SUNNY     59  52  77 NE6       29.93F
DEVILS LAKE    SUNNY     57  46  67 E6        29.94S
$$

NDZ022-023-025-028>030-036>039-047>053-301600-
SOUTHEAST NORTH DAKOTA

CITY           SKY/WX    TMP DP  RH WIND       PRES   REMARKS
FARGO          CLOUDY    56  54  93 N9        29.92S
$$



USA.gov is the U.S. government's official web portal to all federal, state and local government web resources and services.